1496239201.11,49457,20.38,74276.3,6.15,5.49,5.45,0,*78
1496239202.28,49458,20.38,74278.5,6.15,5.49,5.45,0,*77
1496239203.49,49459,20.38,74276.0,6.17,5.37,5.33,0,*7C
1496239204.7,49460,20.38,74278.8,6.17,5.37,5.33,0,*76
1496239205.88,49461,20.38,74276.3,6.15,5.23,5.19,0,*78
1496239207.06,49462,20.38,74276.3,6.15,5.41,5.41,0,*72
1496239208.24,49463,20.38,74278.3,6.15,5.59,5.49,0,*72
1496239209.44,49464,20.38,74278.8,6.17,5.49,5.37,0,*7F
1496239210.65,49465,20.31,74274.5,6.17,5.37,5.33,0,*73
1496239211.86,49466,20.38,74276.5,6.17,5.23,5.11,0,*75
1496239213.07,49467,20.38,74278.3,6.15,4.97,4.89,0,*78
1496239214.31,49468,20.38,74278.3,6.17,5.11,4.93,0,*71
1496239215.48,49469,20.31,74272.3,6.15,5.07,4.89,0,*7E
1496239216.72,49470,20.38,74274.5,6.17,5.23,5.05,0,*77
1496239217.93,49471,20.38,74268.8,6.15,5.11,5.01,0,*71
1496239219.2,49472,20.31,74270.3,6.17,5.05,4.93,0,*7F
1496239220.4,49473,20.38,74274.5,6.15,4.89,4.79,0,*7D
1496239221.63,49474,20.38,74278.5,6.13,4.97,4.85,0,*70
1496239222.87,49475,20.38,74276.3,6.15,4.97,4.79,0,*74
1496239224.06,49476,20.38,74272.3,6.15,5.19,5.07,0,*78
1496239225.29,49477,20.38,74274.0,6.17,5.27,5.15,0,*75
1496239226.48,49478,20.31,74272.5,6.15,5.33,5.23,0,*78
1496239227.71,49479,20.38,74278.0,6.17,5.27,5.11,0,*7F
1496239228.91,49480,20.38,74274.5,6.15,4.85,4.79,0,*7D
1496239230.18,49481,20.38,74274.0,6.17,5.05,4.93,0,*73
1496239231.36,49482,20.38,74268.8,6.15,5.41,5.41,0,*7C
1496239232.56,49483,20.38,74272.0,6.17,5.63,5.49,0,*77
1496239233.77,49484,20.38,74272.3,6.17,5.49,5.33,0,*75
1496239234.97,49485,20.38,74274.5,6.17,5.45,5.37,0,*7C
1496239236.2,49486,20.38,74272.3,6.17,5.01,4.89,0,*7B
1496239237.43,49487,20.31,74268.3,6.17,5.37,5.27,0,*7A
1496239238.63,49488,20.31,74268.3,6.17,5.49,5.45,0,*78
1496239239.84,49489,20.38,74272.8,6.17,5.63,5.59,0,*7C
1496239241.05,49490,20.38,74272.8,6.19,5.51,5.41,0,*72
1496239242.24,49491,20.38,74272.8,6.21,5.55,5.49,0,*74
1496239243.45,49492,20.38,74274.5,6.19,5.63,5.51,0,*70
1496239244.66,49493,20.38,74274.3,6.21,5.63,5.51,0,*7A
1496239245.9,49494,20.38,74274.0,6.23,5.67,5.55,0,*7F
1496239247.08,49495,20.38,74276.5,6.21,5.67,5.63,0,*79
1496239248.25,49496,20.38,74274.5,6.21,5.29,5.29,0,*7E
1496239249.45,49497,20.38,74272.3,6.21,5.37,5.27,0,*7E
1496239250.63,49498,20.38,74270.5,6.21,5.49,5.37,0,*79
1496239251.82,49499,20.38,74270.5,6.21,5.55,5.49,0,*7C
1496239253.03,49500,20.38,74274.3,6.21,5.67,5.55,0,*71
1496239254.27,49501,20.38,74272.5,6.23,5.81,5.71,0,*7C
1496239255.5,49502,20.38,74274.0,6.23,5.81,5.71,0,*7F
1496239256.73,49503,20.31,74272.5,6.23,5.55,5.41,0,*74
1496239257.93,49504,20.38,74268.8,6.25,5.51,5.45,0,*75
1496239259.17,49505,20.38,74272.8,6.23,5.67,5.55,0,*76
1496239260.37,49506,20.38,74270.5,6.25,5.59,5.55,0,*7E
1496239261.59,49507,20.38,74272.8,6.25,5.59,5.51,0,*7B
1496239262.78,49508,20.38,74270.5,6.25,5.41,5.19,0,*71
1496239264.01,49509,20.38,74270.8,6.27,5.71,5.55,0,*79
1496239265.24,49510,20.38,74268.5,6.27,5.95,5.73,0,*7F
1496239266.48,49511,20.38,74270.8,6.27,5.95,5.81,0,*73
1496239267.72,49512,20.38,74270.0,6.27,6.13,5.95,0,*78
1496239268.96,49513,20.38,74270.5,6.27,6.13,5.95,0,*79
1496239270.16,49514,20.31,74264.5,6.29,5.81,5.59,0,*78
1496239271.37,49515,20.38,74266.0,6.29,5.59,5.55,0,*70
1496239272.55,49516,20.38,74270.3,6.29,5.63,5.37,0,*7E
1496239273.75,49517,20.31,74264.8,6.27,5.59,5.49,0,*71
1496239274.99,49518,20.38,74268.0,6.27,5.71,5.55,0,*79
1496239276.22,49519,20.38,74272.0,6.27,5.85,5.59,0,*7F
1496239277.46,49520,20.31,74270.3,6.27,5.85,5.71,0,*7F
1496239278.67,49521,20.38,74268.0,6.29,6.03,5.73,0,*7F
1496239279.87,49522,20.38,74270.8,6.29,6.07,5.85,0,*71
1496239281.08,49523,20.38,74270.3,6.29,6.03,5.73,0,*7D
1496239282.25,49524,20.31,74270.3,6.29,5.45,5.33,0,*7F
1496239283.48,49525,20.38,74270.8,6.29,5.85,5.73,0,*76
1496239284.7,49526,20.38,74274.5,6.31,6.07,5.89,0,*70
1496239285.94,49527,20.38,74272.0,6.31,5.73,5.67,0,*71
1496239287.19,49528,20.38,74272.0,6.31,5.27,5.05,0,*7B
1496239288.41,49529,20.31,74268.3,6.31,5.51,5.37,0,*7A
1496239289.62,49530,20.31,74266.8,6.31,5.59,5.49,0,*73
1496239290.84,49531,20.38,74270.5,6.35,5.77,5.63,0,*72
1496239292.05,49532,20.38,74270.5,6.35,5.67,5.63,0,*70
1496239293.28,49533,20.31,74270.5,6.31,5.63,5.51,0,*70
1496239294.49,49534,20.38,74274.3,6.31,5.59,5.49,0,*77
1496239295.71,49535,20.38,74270.5,6.31,5.77,5.59,0,*7B
1496239296.94,49536,20.38,74268.5,6.31,5.73,5.63,0,*75
1496239298.15,49537,20.31,74268.3,6.31,5.67,5.59,0,*78
1496239299.39,49538,20.38,74268.5,6.35,5.67,5.55,0,*7F
1496239300.61,49539,20.38,74270.8,6.31,5.27,5.15,0,*7A
1496239301.84,49540,20.38,74272.0,6.35,5.01,4.81,0,*78
1496239303.05,49541,20.38,74268.0,6.29,4.81,4.75,0,*76
1496239304.23,49542,20.38,74268.3,6.29,4.57,4.57,0,*7E
1496239305.46,49543,20.38,74270.0,6.29,4.75,4.63,0,*78
1496239306.67,49544,20.38,74268.5,6.29,4.63,4.53,0,*7B
1496239307.9,49545,20.38,74268.3,6.27,4.93,4.89,0,*7C
1496239309.11,49546,20.38,74270.8,6.29,5.15,5.01,0,*7F
1496239310.33,49547,20.38,74270.8,6.27,5.37,5.23,0,*70
1496239311.54,49548,20.38,74266.5,6.27,5.33,5.15,0,*7E
1496239312.71,49549,20.31,74266.0,6.29,5.49,5.37,0,*7C
1496239313.93,49550,20.38,74268.0,6.27,5.63,5.59,0,*7A
1496239315.16,49551,20.38,74270.3,6.27,5.73,5.63,0,*73
1496239316.39,49552,20.38,74268.8,6.29,5.85,5.73,0,*76
1496239317.59,49553,20.38,74268.5,6.29,5.81,5.71,0,*71
1496239318.79,49554,20.31,74266.5,6.29,5.55,5.45,0,*78
1496239319.97,49555,20.31,74264.3,6.29,5.15,5.11,0,*7C
1496239321.21,49556,20.38,74264.8,6.27,4.89,4.79,0,*7A
1496239322.44,49557,20.38,74266.0,6.27,4.93,4.81,0,*77
1496239323.65,49558,20.38,74266.0,6.29,4.93,4.89,0,*7E
1496239324.88,49559,20.38,74264.3,6.27,4.93,4.89,0,*71
1496239326.12,49560,20.38,74264.3,6.27,5.01,4.89,0,*71
1496239327.35,49561,20.38,74266.3,6.27,5.27,5.11,0,*74
1496239328.58,49562,20.38,74266.5,6.27,5.55,5.37,0,*76
1496239329.78,49563,20.38,74262.8,6.27,5.59,5.49,0,*72
1496239331.0,49564,20.38,74260.0,6.27,5.33,5.23,0,*75
1496239332.24,49565,20.31,74260.8,6.27,5.63,5.55,0,*70
1496239333.44,49566,20.38,74260.3,6.29,5.85,5.71,0,*73
1496239334.65,49567,20.38,74260.8,6.29,5.81,5.63,0,*75
1496239335.91,49568,20.38,74258.5,6.27,5.93,5.81,0,*7B
1496239337.13,49569,20.38,74260.5,6.29,5.85,5.73,0,*7E
1496239338.33,49570,20.31,74258.3,6.29,6.07,5.93,0,*71
1496239339.57,49571,20.38,74260.8,6.29,5.93,5.85,0,*79
1496239340.8,49572,20.38,74256.3,6.31,5.99,5.85,0,*79
1496239342.01,49573,20.38,74256.3,6.31,6.07,5.99,0,*71
1496239343.25,49574,20.31,74256.5,6.35,6.13,6.03,0,*77
1496239344.48,49575,20.31,74256.3,6.35,6.11,5.93,0,*7E
1496239345.72,49576,20.38,74260.3,6.35,6.03,5.89,0,*75
1496239346.95,49577,20.31,74256.0,6.35,6.13,6.11,0,*77
1496239348.15,49578,20.38,74256.3,6.37,6.25,6.13,0,*7D
1496239349.34,49579,20.38,74258.3,6.37,6.21,6.11,0,*7A
1496239350.52,49580,20.38,74256.8,6.37,6.33,6.25,0,*78
1496239351.75,49581,20.38,74258.3,6.39,6.39,6.29,0,*71
1496239352.93,49582,20.38,74262.0,6.37,6.33,6.25,0,*7A
1496239354.17,49583,20.38,74260.5,6.39,6.43,6.29,0,*7E
1496239355.39,49584,20.31,74258.3,6.41,6.39,6.39,0,*7A
1496239356.6,49585,20.31,74256.8,6.41,6.29,6.17,0,*76
1496239357.79,49586,20.38,74262.8,6.41,6.33,6.21,0,*7B
1496239359.03,49587,20.31,74260.3,6.43,6.33,6.17,0,*7D
1496239360.21,49588,20.38,74258.5,6.41,6.33,6.11,0,*76
1496239361.44,49589,20.38,74262.5,6.43,6.07,5.85,0,*7C
1496239362.64,49590,20.38,74262.3,6.41,6.11,5.89,0,*7D
1496239363.88,49591,20.31,74262.0,6.43,6.29,6.17,0,*71
1496239365.09,49592,20.38,74264.8,6.43,6.33,6.21,0,*7C
1496239366.31,49593,20.38,74264.5,6.43,5.95,5.77,0,*72
1496239367.52,49594,20.38,74266.0,6.43,5.41,5.19,0,*74
1496239368.75,49595,20.38,74264.3,6.43,5.27,5.15,0,*79
1496239369.95,49596,20.38,74266.3,6.43,5.63,5.49,0,*73
1496239371.18,49597,20.38,74266.8,6.43,5.63,5.51,0,*7B
1496239372.38,49598,20.38,74266.0,6.43,5.63,5.49,0,*7D
1496239373.61,49599,20.38,74266.8,6.43,5.71,5.51,0,*76
1496239374.8,49600,20.38,74268.8,6.41,5.51,5.37,0,*75
1496239376.01,49601,20.31,74266.0,6.41,5.59,5.51,0,*7C
1496239377.23,49602,20.38,74266.8,6.43,5.37,5.27,0,*74
1496239378.41,49603,20.31,74268.0,6.41,4.57,4.49,0,*79
1496239379.64,49604,20.31,74270.8,6.39,4.85,4.79,0,*7D
1496239380.88,49605,20.38,74270.8,6.39,5.11,5.01,0,*7E
1496239382.1,49606,20.31,74264.5,6.39,5.55,5.45,0,*7D
1496239383.27,49607,20.38,74268.0,6.37,5.07,4.85,0,*78
1496239384.49,49608,20.38,74270.8,6.39,5.67,5.59,0,*7F
1496239385.74,49609,20.38,74268.0,6.39,5.85,5.81,0,*77
1496239386.94,49610,20.38,74268.5,6.39,5.71,5.49,0,*70
1496239388.11,49611,20.38,74270.3,6.37,5.45,5.45,0,*74
1496239389.34,49612,20.38,74268.3,6.39,5.81,5.67,0,*71
1496239390.55,49613,20.31,74270.0,6.37,5.81,5.71,0,*79
1496239391.73,49614,20.38,74272.0,6.41,5.99,5.95,0,*7C
1496239392.93,49615,20.31,74266.5,6.41,5.95,5.85,0,*70
1496239394.12,49616,20.31,74264.5,6.41,6.21,6.11,0,*71
1496239395.38,49617,20.31,74264.5,6.39,5.93,5.93,0,*7C
1496239396.61,49618,20.38,74264.3,6.39,6.29,6.13,0,*7A
1496239397.84,49619,20.31,74264.5,6.41,6.47,6.39,0,*74
1496239399.1,49620,20.31,74264.3,6.43,6.43,6.39,0,*78
1496239400.3,49621,20.31,74266.3,6.43,5.63,5.63,0,*74
1496239401.48,49622,20.31,74266.5,6.41,6.07,5.95,0,*7D
1496239402.71,49623,20.31,74260.8,6.43,5.99,5.89,0,*77
1496239403.93,49624,20.38,74264.8,6.43,6.33,6.33,0,*71
1496239405.19,49625,20.38,74264.0,6.43,6.47,6.47,0,*70
1496239406.4,49626,20.38,74260.5,6.45,6.69,6.57,0,*78
1496239407.66,49627,20.31,74262.0,6.47,6.57,6.47,0,*77
1496239408.9,49628,20.38,74260.8,6.47,6.61,6.57,0,*7C
1496239410.14,49629,20.31,74262.5,6.49,6.47,6.35,0,*73
1496239411.37,49630,20.31,74258.8,6.51,6.39,6.33,0,*7D
1496239412.57,49631,20.31,74258.8,6.49,5.55,5.37,0,*7B
1496239413.8,49632,20.31,74262.5,6.51,6.07,5.93,0,*7B
1496239415.03,49633,20.31,74262.5,6.51,5.95,5.89,0,*79
1496239416.23,49634,20.31,74258.3,6.49,5.77,5.49,0,*77
1496239417.43,49635,20.38,74264.0,6.51,5.15,4.89,0,*76
1496239418.6,49636,20.38,74264.5,6.49,5.71,5.49,0,*73
1496239419.83,49637,20.38,74264.8,6.49,5.27,4.97,0,*73
1496239421.05,49638,20.31,74262.0,6.49,5.27,5.05,0,*76
1496239422.25,49639,20.38,74264.0,6.51,5.41,5.29,0,*70
1496239423.46,49640,20.31,74262.8,6.51,5.37,5.19,0,*7C
1496239424.66,49641,20.38,74264.0,6.49,5.15,5.05,0,*79
1496239425.85,49642,20.38,74266.8,6.49,5.23,5.15,0,*7E
1496239427.08,49643,20.38,74260.5,6.51,5.19,5.27,0,*7E
1496239428.25,49644,20.31,74256.5,6.49,5.49,5.41,0,*75
1496239429.48,49645,20.38,74256.8,6.53,5.15,5.05,0,*76
1496239430.72,49646,20.38,74258.8,6.49,4.97,4.75,0,*73
1496239431.95,49647,20.38,74258.0,6.49,4.79,4.63,0,*75
1496239433.12,49648,20.31,74254.8,6.49,5.11,4.89,0,*71
1496239434.33,49649,20.31,74256.5,6.49,4.53,4.31,0,*74
1496239435.51,49650,20.38,74256.0,6.49,4.53,4.33,0,*7E
1496239436.69,49651,20.38,74258.3,6.49,4.57,4.33,0,*7B
1496239437.87,49652,20.31,74258.3,6.49,4.33,4.15,0,*7E
1496239439.08,49653,20.38,74258.0,6.47,4.23,3.93,0,*79
1496239440.3,49654,20.38,74256.5,6.45,4.31,4.01,0,*73
1496239441.53,49655,20.38,74260.0,6.45,4.31,4.05,0,*76
1496239442.74,49656,20.38,74262.5,6.45,4.53,4.31,0,*76
1496239443.94,49657,20.31,74256.0,6.43,4.57,4.49,0,*7A
1496239445.14,49658,20.38,74256.5,6.45,5.07,5.01,0,*7A
1496239446.37,49659,20.38,74256.0,6.45,5.01,4.93,0,*77
1496239447.54,49660,20.31,74254.5,6.45,5.45,5.33,0,*76
1496239448.77,49661,20.31,74256.0,6.47,5.99,5.81,0,*7D
1496239450.03,49662,20.38,74258.8,6.47,5.81,5.51,0,*7A
1496239451.25,49663,20.38,74262.0,6.47,5.77,5.45,0,*77
1496239452.45,49664,20.38,74262.0,6.49,5.81,5.49,0,*7B
1496239453.68,49665,20.38,74262.0,6.51,5.85,5.37,0,*7E
1496239454.91,49666,20.38,74264.3,6.51,5.41,5.05,0,*74
1496239456.11,49667,20.38,74262.5,6.53,5.07,4.81,0,*78
1496239457.37,49668,20.31,74262.5,6.57,4.93,4.63,0,*73
1496239458.56,49669,20.38,74260.8,6.53,4.49,4.45,0,*75
1496239459.76,49670,20.38,74262.8,6.53,3.85,3.85,0,*71
1496239460.97,49671,20.31,74256.5,6.53,4.19,4.07,0,*7F
1496239462.2,49672,20.38,74262.0,6.51,4.11,3.97,0,*78
1496239463.4,49673,20.31,74258.8,6.49,4.05,3.85,0,*76
1496239464.61,49674,20.31,74260.3,6.49,3.93,4.05,0,*76
1496239465.81,49675,20.38,74262.0,6.49,3.81,4.05,0,*74
1496239467.05,49676,20.38,74258.8,6.47,3.07,3.29,0,*7E
1496239468.25,49677,20.31,74258.0,6.45,3.41,3.55,0,*74
1496239469.47,49678,20.31,74256.5,6.45,3.45,3.67,0,*7E
1496239470.68,49679,20.31,74258.3,6.45,4.05,4.37,0,*7E
1496239471.92,49680,20.31,74258.8,6.43,3.79,3.89,0,*70
1496239473.14,49681,20.31,74256.3,6.41,3.79,4.01,0,*74
1496239474.36,49682,20.31,74254.0,6.43,4.37,4.37,0,*7D
1496239475.61,49683,20.31,74256.8,6.43,5.05,5.05,0,*7C
1496239476.82,49684,20.38,74262.3,6.43,4.45,4.45,0,*7B
1496239478.02,49685,20.38,74258.8,6.41,3.89,3.97,0,*77
1496239479.23,49686,20.38,74256.8,6.39,4.15,4.07,0,*77
1496239480.49,49687,20.31,74258.0,6.39,4.67,4.63,0,*71
1496239481.67,49688,20.38,74258.3,6.41,4.37,4.27,0,*74
1496239482.85,49689,20.31,74256.5,6.41,4.27,4.23,0,*70
1496239484.07,49690,20.38,74260.5,6.39,4.79,4.81,0,*74
1496239485.31,49691,20.38,74258.5,6.37,4.97,4.97,0,*7C
1496239486.56,49692,20.38,74258.5,6.39,5.81,5.73,0,*7C
1496239487.74,49693,20.31,74258.0,6.41,6.29,6.11,0,*74
1496239488.95,49694,20.31,74256.3,6.45,6.35,6.25,0,*7D
1496239490.16,49695,20.31,74260.5,6.43,6.33,6.29,0,*70
1496239491.39,49696,20.38,74266.5,6.47,5.51,5.33,0,*78
1496239492.62,49697,20.31,74260.0,6.47,5.19,5.01,0,*74
1496239493.86,49698,20.31,74256.3,6.47,4.71,4.15,0,*70
1496239495.09,49699,20.38,74260.8,6.45,3.07,2.73,0,*73
1496239496.29,49700,20.31,74258.3,6.43,2.65,2.31,0,*77
1496239497.52,49701,20.38,74262.5,6.41,2.81,2.59,0,*70
1496239498.75,49702,20.38,74260.0,6.39,2.89,2.65,0,*7B
1496239499.95,49703,20.31,74252.8,6.37,3.55,3.33,0,*76
1496239501.12,49704,20.38,74258.3,6.37,3.55,3.29,0,*7A
1496239502.38,49705,20.31,74258.5,6.31,3.03,2.81,0,*7D
1496239503.6,49706,20.38,74258.8,6.31,3.55,3.53,0,*73
1496239504.83,49707,20.31,74260.0,6.31,3.55,3.67,0,*75
1496239506.09,49708,20.31,74260.0,6.31,3.03,3.15,0,*7C
1496239507.29,49709,20.31,74256.3,6.29,3.41,3.63,0,*73
1496239508.55,49710,20.38,74258.8,6.27,3.11,3.23,0,*74
1496239509.82,49711,20.38,74252.0,6.27,4.05,4.31,0,*73
1496239511.02,49712,20.31,74252.5,6.29,4.63,4.89,0,*7D
1496239512.25,49713,20.31,74252.8,6.29,4.79,5.05,0,*72
1496239513.44,49714,20.38,74254.5,6.29,4.89,5.11,0,*7F
1496239514.67,49715,20.38,74258.3,6.31,4.59,4.81,0,*72
1496239515.88,49716,20.31,74254.0,6.31,4.07,4.23,0,*72
1496239517.11,49717,20.38,74256.3,6.35,4.05,4.27,0,*71
1496239518.32,49718,20.31,74254.3,6.31,4.23,4.37,0,*7F
1496239519.52,49719,20.38,74262.5,6.31,4.07,4.27,0,*79
1496239520.73,49720,20.38,74256.5,6.31,4.27,4.49,0,*79
1496239521.94,49721,20.31,74256.3,6.31,4.27,4.45,0,*74
1496239523.17,49722,20.31,74258.5,6.31,3.97,4.07,0,*7D
1496239524.36,49723,20.38,74254.5,6.31,3.55,3.55,0,*72
1496239525.54,49724,20.38,74258.8,6.29,3.81,3.85,0,*78
1496239526.72,49725,20.31,74258.5,6.29,4.23,4.33,0,*7C
1496239527.94,49726,20.31,74252.0,6.27,4.11,4.33,0,*70
1496239529.17,49727,20.31,74248.8,6.29,3.97,4.05,0,*73
1496239530.38,49728,20.38,74254.0,6.27,4.57,4.57,0,*7E
1496239531.59,49729,20.31,74248.5,6.29,4.33,4.31,0,*73
1496239532.79,49730,20.31,74252.5,6.29,4.57,4.75,0,*79
1496239534.0,49731,20.38,74254.5,6.27,4.45,4.45,0,*76
1496239535.27,49732,20.38,74250.8,6.27,4.93,4.93,0,*75
1496239536.44,49733,20.31,74252.0,6.29,5.37,5.37,0,*7A
1496239537.66,49734,20.31,74248.8,6.29,5.11,5.01,0,*7C
1496239538.89,49735,20.31,74248.5,6.29,5.05,5.01,0,*78
1496239540.1,49736,20.38,74248.8,6.31,5.59,5.49,0,*77
1496239541.34,49737,20.38,74248.5,6.31,5.77,5.73,0,*73
1496239542.55,49738,20.31,74248.0,6.31,5.67,5.63,0,*7C
1496239543.78,49739,20.31,74254.0,6.37,5.81,5.81,0,*7F
1496239544.95,49740,20.38,74248.5,6.37,5.63,5.63,0,*71
1496239546.12,49741,20.38,74248.5,6.37,5.45,5.41,0,*74
1496239547.33,49742,20.31,74252.0,6.39,5.67,5.59,0,*70
1496239548.6,49743,20.38,74254.3,6.39,5.05,5.01,0,*78
1496239549.77,49744,20.31,74246.8,6.37,4.19,4.11,0,*7D
1496239550.97,49745,20.38,74252.5,6.37,3.37,3.29,0,*7B
1496239552.2,49746,20.38,74244.8,6.35,3.55,3.49,0,*78
1496239553.43,49747,20.31,74252.8,6.31,3.97,3.89,0,*7F
1496239554.66,49748,20.38,74250.8,6.31,4.85,4.79,0,*7C
1496239555.86,49749,20.38,74246.5,6.31,4.49,4.27,0,*76
1496239557.09,49750,20.31,74246.5,6.31,4.01,4.07,0,*70
1496239558.32,49751,20.38,74246.0,6.31,4.93,4.85,0,*70
1496239559.55,49752,20.31,74248.3,6.31,4.85,4.93,0,*73
1496239560.79,49753,20.38,74246.5,6.31,4.07,3.97,0,*7B
1496239561.97,49754,20.31,74246.3,6.29,4.57,4.57,0,*7B
1496239563.23,49755,20.38,74246.0,6.27,3.71,3.49,0,*7F
1496239564.41,49756,20.38,74242.0,6.29,3.85,3.63,0,*71
1496239565.62,49757,20.38,74246.3,6.27,4.57,4.53,0,*72
1496239566.85,49758,20.31,74242.8,6.27,4.67,4.57,0,*7A
1496239568.07,49759,20.31,74242.3,6.27,4.57,4.41,0,*7F
1496239569.28,49760,20.38,74242.5,6.25,4.41,4.31,0,*77
1496239570.46,49761,20.38,74240.8,6.25,4.37,4.27,0,*70
1496239571.65,49762,20.31,74244.3,6.25,4.27,4.19,0,*7F
1496239572.88,49763,20.31,74250.0,6.23,3.55,3.45,0,*74
1496239574.06,49764,20.38,74238.3,6.25,4.19,4.07,0,*7B
1496239575.28,49765,20.31,74232.8,6.25,4.97,4.85,0,*76
1496239576.5,49766,20.38,74246.8,6.25,4.89,4.71,0,*71
1496239577.7,49767,20.31,74250.3,6.23,4.85,4.49,0,*71
1496239578.91,49768,20.31,74250.3,6.25,4.79,4.37,0,*72
1496239580.15,49769,20.31,74244.3,6.25,5.01,4.59,0,*75
1496239581.39,49770,20.31,74244.0,6.25,4.97,4.59,0,*73
1496239582.65,49771,20.31,74240.8,6.27,4.93,4.79,0,*76
1496239583.89,49772,20.31,74236.0,6.27,5.05,4.89,0,*74
1496239585.12,49773,20.38,74240.8,6.29,4.93,4.67,0,*75
1496239586.35,49774,20.38,74248.0,6.29,4.67,4.63,0,*7D
1496239587.56,49775,20.38,74250.3,6.29,5.01,5.11,0,*79
1496239588.8,49776,20.31,74248.3,6.29,5.01,5.05,0,*7F
1496239589.98,49777,20.31,74250.0,6.29,5.11,5.15,0,*7E
1496239591.19,49778,20.38,74250.0,6.35,5.33,5.33,0,*78
1496239592.39,49779,20.38,74244.8,6.31,5.49,5.49,0,*7D
1496239593.6,49780,20.38,74242.8,6.35,5.63,5.63,0,*7F
1496239594.78,49781,20.38,74240.8,6.37,5.67,5.67,0,*7C
1496239596.0,49782,20.38,74240.5,6.37,5.55,5.51,0,*7B
1496239597.17,49783,20.31,74230.8,6.37,5.33,5.29,0,*75
1496239598.37,49784,20.31,74220.3,6.39,5.37,5.37,0,*77
1496239599.6,49785,20.38,74226.0,6.39,6.17,6.07,0,*77
1496239600.87,49786,20.38,74236.3,6.39,6.51,6.43,0,*76
1496239602.08,49787,20.31,74240.8,6.41,6.33,6.17,0,*7D
1496239603.33,49788,20.38,74238.3,6.43,4.97,4.67,0,*79
1496239604.56,49789,20.31,74238.5,6.43,4.97,4.45,0,*78
1496239605.79,49790,20.31,74226.0,6.43,5.15,4.67,0,*7B
1496239607.05,49791,20.38,74230.8,6.43,4.97,4.71,0,*76
1496239608.25,49792,20.31,74228.5,6.43,4.19,4.19,0,*7D
1496239609.43,49793,20.31,74232.0,6.41,4.45,4.33,0,*7F
1496239610.63,49794,20.31,74224.8,6.43,4.27,4.19,0,*76
1496239611.84,49795,20.31,74224.0,6.43,4.11,4.07,0,*7D
1496239613.07,49796,20.38,74222.0,6.43,3.67,3.63,0,*7D
1496239614.3,49797,20.31,74220.0,6.41,3.97,3.75,0,*76
1496239615.5,49798,20.38,74220.5,6.41,4.37,3.97,0,*78
1496239616.71,49799,20.31,74228.3,6.41,4.67,4.45,0,*74
1496239617.88,49800,20.31,74222.8,6.41,4.49,4.45,0,*77
1496239619.11,49801,20.38,74228.3,6.41,4.67,4.67,0,*7A
1496239620.35,49802,20.31,74226.5,6.41,5.05,4.97,0,*73
1496239621.58,49803,20.31,74220.8,6.43,4.67,4.57,0,*79
1496239622.81,49804,20.31,74224.0,6.45,4.75,4.63,0,*7C
1496239624.04,49805,20.31,74228.0,6.43,5.07,4.93,0,*70
1496239625.24,49806,20.31,74224.5,6.43,5.37,5.37,0,*7F
1496239626.45,49807,20.31,74224.0,6.47,5.11,5.11,0,*7A
1496239627.64,49808,20.31,74224.3,6.47,4.81,4.81,0,*75
1496239628.88,49809,20.31,74224.5,6.49,4.75,4.67,0,*79
1496239630.13,49810,20.31,74230.8,6.47,4.05,4.01,0,*78
1496239631.36,49811,20.38,74230.3,6.47,4.31,4.49,0,*72
1496239632.61,49812,20.31,74230.3,6.47,4.31,4.31,0,*7E
1496239633.79,49813,20.38,74230.5,6.45,3.81,3.81,0,*7D
1496239635.02,49814,20.31,74232.8,6.45,3.23,3.23,0,*7A
1496239636.19,49815,20.31,74232.8,6.45,3.59,3.55,0,*77
1496239637.39,49816,20.38,74232.8,6.41,4.01,4.11,0,*7D
1496239638.59,49817,20.31,74230.3,6.41,4.89,4.79,0,*72
1496239639.85,49818,20.31,74234.8,6.43,5.05,4.97,0,*7A
1496239641.06,49819,20.38,74236.3,6.41,4.81,4.71,0,*7C
1496239642.29,49820,20.38,74232.8,6.41,3.79,3.75,0,*75
1496239643.5,49821,20.38,74232.8,6.41,3.67,3.63,0,*7C
1496239644.73,49822,20.31,74230.0,6.41,3.79,3.67,0,*74
1496239645.96,49823,20.31,74230.8,6.39,4.41,4.31,0,*72
1496239647.17,49824,20.31,74228.8,6.39,4.07,4.07,0,*72
1496239648.38,49825,20.38,74228.3,6.39,4.15,4.07,0,*70
1496239649.61,49826,20.38,74232.8,6.39,3.63,3.49,0,*78
1496239650.81,49827,20.31,74230.0,6.37,3.81,3.71,0,*70
1496239652.04,49828,20.38,74230.0,6.37,3.37,3.45,0,*75
1496239653.28,49829,20.31,74228.5,6.35,4.31,4.41,0,*74
1496239654.51,49830,20.31,74226.5,6.35,4.31,4.49,0,*74
1496239655.75,49831,20.31,74224.8,6.35,4.75,4.85,0,*75
1496239656.98,49832,20.38,74220.5,6.35,4.53,4.59,0,*73
1496239658.19,49833,20.31,74212.8,6.35,4.89,4.85,0,*74
1496239659.39,49834,20.38,74220.0,6.35,4.81,4.81,0,*7F
1496239660.59,49835,20.38,74224.0,6.35,4.85,4.81,0,*7A
1496239661.78,49836,20.31,74216.3,6.37,5.51,5.45,0,*7A
1496239662.99,49837,20.31,74222.8,6.39,5.37,5.33,0,*74
1496239664.22,49838,20.31,74226.3,6.39,4.75,4.57,0,*7F
1496239665.4,49839,20.31,74222.5,6.37,4.53,4.41,0,*73
1496239666.61,49840,20.31,74220.0,6.37,5.07,4.97,0,*76
1496239667.84,49841,20.31,74224.5,6.39,4.63,4.53,0,*72
1496239669.06,49842,20.38,74220.5,6.37,4.75,4.63,0,*7B
1496239670.28,49843,20.31,74224.8,6.39,4.07,3.93,0,*79
1496239671.48,49844,20.38,74226.3,6.39,3.85,3.81,0,*70
1496239672.66,49845,20.31,74222.5,6.37,3.59,3.55,0,*77
1496239673.85,49846,20.31,74226.5,6.37,3.55,3.49,0,*75
1496239675.08,49847,20.31,74220.0,6.37,3.67,3.71,0,*7E
1496239676.3,49848,20.31,74220.3,6.31,4.27,4.37,0,*71
1496239677.5,49849,20.31,74222.8,6.35,4.27,4.27,0,*75
1496239678.76,49850,20.31,74220.8,6.35,4.05,4.05,0,*7D
1496239679.98,49851,20.38,74220.8,6.35,4.37,4.37,0,*7C
1496239681.24,49852,20.38,74222.8,6.35,4.31,4.31,0,*7F
1496239682.5,49853,20.38,74222.3,6.35,3.23,3.11,0,*7F
1496239683.73,49854,20.38,74222.3,6.31,3.67,3.55,0,*7C
1496239685.0,49855,20.38,74222.3,6.31,3.15,3.03,0,*7B
1496239686.22,49856,20.38,74220.3,6.31,3.19,2.95,0,*7A
1496239687.48,49857,20.38,74214.3,6.31,3.03,3.15,0,*79
1496239688.72,49858,20.38,74218.0,6.29,3.23,3.11,0,*79
1496239689.95,49859,20.31,74212.3,6.27,3.41,3.63,0,*77
1496239691.16,49860,20.31,74218.5,6.27,4.11,4.23,0,*7C
1496239692.42,49861,20.31,74216.3,6.27,2.89,2.89,0,*7C
1496239693.63,49862,20.31,74216.5,6.25,3.25,3.49,0,*77
1496239694.87,49863,20.31,74216.5,6.25,2.89,3.07,0,*7B
1496239696.1,49864,20.38,74222.3,6.23,2.99,3.19,0,*74
1496239697.35,49865,20.31,74214.5,6.23,2.55,2.85,0,*71
1496239698.59,49866,20.31,74214.8,6.23,2.39,2.61,0,*72
1496239699.83,49867,20.38,74218.8,6.21,2.43,2.51,0,*7F
1496239701.07,49868,20.38,74214.8,6.19,2.47,2.59,0,*77
1496239702.3,49869,20.31,74216.8,6.15,1.93,2.01,0,*7D
1496239703.55,49870,20.31,74218.0,6.17,2.89,2.69,0,*71
1496239704.79,49871,20.31,74212.3,6.09,3.11,2.95,0,*7C
1496239706.01,49872,20.38,74216.5,6.13,2.95,2.77,0,*75
1496239707.27,49873,20.31,74210.8,6.09,2.69,2.59,0,*70
1496239708.52,49874,20.31,74214.0,6.09,2.81,2.61,0,*7A
1496239709.75,49875,20.31,74216.8,6.05,3.19,3.29,0,*7A
1496239710.98,49876,20.31,74212.8,6.05,3.59,3.49,0,*7B
1496239712.22,49877,20.31,74210.5,6.05,2.99,2.81,0,*72
1496239713.42,49878,20.31,74214.3,6.03,2.95,2.85,0,*73
1496239714.67,49879,20.31,74214.8,6.03,3.15,3.15,0,*73
1496239715.9,49880,20.31,74214.3,6.03,3.37,3.33,0,*71
1496239717.11,49881,20.31,74212.8,6.03,3.59,3.49,0,*75
1496239718.37,49882,20.31,74216.0,6.01,3.23,3.11,0,*74
1496239719.6,49883,20.31,74212.3,6.01,3.33,3.25,0,*73
1496239720.81,49884,20.31,74212.3,6.03,3.55,3.49,0,*7C
1496239722.01,49885,20.31,74216.8,6.01,3.59,3.55,0,*7E
1496239723.25,49886,20.31,74214.3,6.01,3.45,3.25,0,*77
1496239724.5,49887,20.31,74212.0,6.01,3.37,3.23,0,*75
1496239725.76,49888,20.31,74210.3,6.01,3.33,3.15,0,*7B
1496239726.99,49889,20.31,74208.5,6.01,3.79,3.55,0,*70
1496239728.2,49890,20.31,74210.5,5.99,3.81,3.53,0,*7B
1496239729.44,49891,20.38,74216.5,6.01,4.31,3.81,0,*7B
1496239730.66,49892,20.31,74208.8,6.01,4.79,4.15,0,*7E
1496239731.88,49893,20.38,74214.3,6.03,5.49,4.75,0,*79